CXA9527 ZPLJ-ZUUU

Flight info

Callsign CXA9527
Flight time N/A
Altitude 29100
Route SB31D SB W162 KAKMI W144 IGNAK IGNA9M
Aircraft A320/L-SDE2E3FGHIJ1RWXY/M

Departure

Time 2026-04-15 13:48
Airport Lijiang Sanyi International Airport (ZPLJ)

Arrival

Time N/A
Airport Chengdu Shuangliu International Airport (ZUUU)
Time Latitude Longitude Altitude Speed Heading
2026-04-15 13:25 26.67438 100.24644 7402 ft 0 kts 108°
2026-04-15 13:39 26.67440 100.24635 7400 ft 2 kts 108°
2026-04-15 13:40 26.67445 100.24619 7400 ft 1 kts 108°
2026-04-15 13:40 26.67448 100.24609 7400 ft 2 kts 100°
2026-04-15 13:40 26.67447 100.24592 7400 ft 2 kts 70°
2026-04-15 13:40 26.67440 100.24577 7401 ft 2 kts 44°
2026-04-15 13:41 26.67428 100.24568 7401 ft 0 kts 21°
2026-04-15 13:41 26.67422 100.24567 7401 ft 1 kts 15°
2026-04-15 13:41 26.67420 100.24566 7401 ft 0 kts 16°
2026-04-15 13:42 26.67422 100.24567 7401 ft 1 kts 16°
2026-04-15 13:43 26.67434 100.24571 7401 ft 2 kts 16°
2026-04-15 13:43 26.67455 100.24577 7400 ft 3 kts 16°
2026-04-15 13:43 26.67485 100.24587 7400 ft 5 kts 17°
2026-04-15 13:43 26.67524 100.24601 7400 ft 6 kts 17°
2026-04-15 13:44 26.67572 100.24618 7400 ft 8 kts 17°
2026-04-15 13:44 26.67641 100.24641 7400 ft 12 kts 16°
2026-04-15 13:44 26.67734 100.24671 7400 ft 15 kts 15°
2026-04-15 13:44 26.67845 100.24709 7400 ft 17 kts 17°
2026-04-15 13:45 26.67972 100.24753 7399 ft 20 kts 18°
2026-04-15 13:45 26.68113 100.24799 7399 ft 22 kts 15°
2026-04-15 13:45 26.68269 100.24848 7399 ft 23 kts 14°
2026-04-15 13:47 26.68905 100.24883 7397 ft 8 kts 192°
2026-04-15 13:47 26.68654 100.24803 7398 ft 84 kts 199°
2026-04-15 13:47 26.67778 100.24501 7403 ft 172 kts 200°
2026-04-15 13:48 26.66513 100.24053 7914 ft 204 kts 199°
2026-04-15 13:48 26.65201 100.23610 8969 ft 196 kts 199°
2026-04-15 13:48 26.63919 100.23178 9878 ft 197 kts 199°
2026-04-15 13:48 26.62571 100.22714 10509 ft 214 kts 200°
2026-04-15 13:49 26.61100 100.22208 11141 ft 231 kts 200°
2026-04-15 13:49 26.59486 100.21654 11657 ft 257 kts 200°
2026-04-15 13:49 26.57697 100.21037 12343 ft 278 kts 200°
2026-04-15 13:49 26.55802 100.20388 13068 ft 296 kts 200°
2026-04-15 13:50 26.53797 100.19702 13997 ft 305 kts 201°
2026-04-15 13:50 26.51763 100.19012 15063 ft 309 kts 201°
2026-04-15 13:50 26.49717 100.18340 16133 ft 313 kts 198°
2026-04-15 13:50 26.47522 100.18263 17090 ft 330 kts 175°
2026-04-15 13:51 26.45346 100.19235 18055 ft 348 kts 152°
2026-04-15 13:51 26.43610 100.21151 18897 ft 365 kts 126°
2026-04-15 13:51 26.42580 100.23743 19511 ft 373 kts 111°
2026-04-15 13:51 26.41792 100.26503 19851 ft 375 kts 110°
2026-04-15 13:52 26.41010 100.29279 19922 ft 375 kts 110°